sat.trackr.live / text

‹ back to catalog

STARLINK-4193

NORAD 52875 · 2022-062AX

PAYLOAD ACTIVE UNKNOWN

§ Identity

Operator
Country
US
Launch date
2022-06-17
Launch site
AFETR
Launch vehicle
Mass (kg)
RCS (m²)

Purposes: comms

External: N2YO · Heavens-Above · Gunter

§ Orbital elements

Epoch: 2026-05-25T03:02:31.130016Z

Period
95.44 min
Inclination
53.2130°
Eccentricity
0.0001644
Mean motion
15.08838665 rev/d
Perigee alt
538.6 km
Apogee alt
540.9 km
Semi-major
6,917.9 km
B*
4.1990e-5
RAAN
30.9795°
Arg perigee
86.1665°
Mean anomaly
273.9515°
Rev number
21,760

§ Raw data

STARLINK-41931 52875U 22062AX  26145.12674919  .00000380  00000+0  41990-4 0  99932 52875  53.2130  30.9795 0001644  86.1665 273.9515 15.08838665217601

JSON: /api/v1/satellites/52875 · /tle

For live sub-satellite position, see the globe view (requires WebGL).

§ Visibility from observer

Set your observer location to see the next 7 days of passes ≥ 10°. The values pass through the URL so the page stays shareable.

No JS? Fill the form by hand. The geolocation button needs JavaScript.